Olivia, MN

3:01 AM CST on February 14, 2016 (GMT -0600)
Olivia Regional

Weather History for KOVL - September, 2013

Change the Weather History Date:

Sunday, September 22, 2013

  Actual Average (KRWF) Record (KRWF)
Temperature  
Mean Temperature 65 °F -  
Max Temperature 80 °F 66 °F 98 °F (1936)
Min Temperature 50 °F 44 °F 27 °F (1974)
Growing Degree Days 15 (Base 50)    
Moisture  
Dew Point 49 °F    
Average Humidity 63    
Maximum Humidity 82    
Minimum Humidity 34    
Precipitation  
Precipitation 0.00 in - - ()
Sea Level Pressure  
Sea Level Pressure 29.84 in    
Wind  
Wind Speed 11 mph (SE)    
Max Wind Speed 20 mph    
Max Gust Speed 26 mph    
Visibility 10 miles    
Events      
Averages and records for this station are not official NWS values.
T = Trace of Precipitation, MM = Missing Value Source: NWS Daily Summary

Daily Weather History Graph

Daily Weather History Graph

Search for Another Location

Airport or City:

Trip Planner

Search our weather history database for the weather conditions in past years. The results will help you decide how hot, cold, wet, or windy it might be!

Date:

Astronomy

Sep. 22, 2013 Rise Set
Actual Time 7:07 AM CDT 7:17 PM CDT
Civil Twilight 6:38 AM CDT 7:46 PM CDT
Nautical Twilight 6:04 AM CDT 8:20 PM CDT
Astronomical Twilight 5:28 AM CDT 8:55 PM CDT
Moon 8:57 PM CDT (9/22) 10:38 AM CDT (9/22)
Length of Visible Light 13h 07m
Length of Day
12h 09m
Waning Gibbous, 88% of the Moon is Illuminated
Sep 22
Waning Gibbous
Sep 26
Last Quarter
Oct 4
New
Oct 11
First Quarter
Oct 18
Full

Hourly Weather History & Observations

Time (CDT) Temp. Dew Point Humidity Pressure Visibility Wind Dir Wind Speed Gust Speed Precip Events Conditions
12:13 AM 51.8 °F 44.6 °F 76% 29.91 in 10.0 mi East 10.4 mph - N/A   Clear
12:34 AM 51.8 °F 44.6 °F 76% 29.91 in 10.0 mi ESE 9.2 mph - N/A   Clear
12:54 AM 50.0 °F 44.6 °F 82% 29.91 in 10.0 mi ESE 8.1 mph - N/A   Clear
1:14 AM 50.0 °F 44.6 °F 82% 29.91 in 10.0 mi ESE 6.9 mph - N/A   Clear
1:33 AM 50.0 °F 44.6 °F 82% 29.91 in 10.0 mi ESE 6.9 mph - N/A   Clear
1:54 AM 50.0 °F 44.6 °F 82% 29.91 in 10.0 mi ESE 8.1 mph - N/A   Clear
2:13 AM 50.0 °F 44.6 °F 82% 29.91 in 10.0 mi ESE 8.1 mph - N/A   Clear
2:34 AM 50.0 °F 44.6 °F 82% 29.91 in 10.0 mi ESE 8.1 mph - N/A   Scattered Clouds
2:54 AM 50.0 °F 44.6 °F 82% 29.90 in 10.0 mi ESE 8.1 mph - N/A   Scattered Clouds
3:14 AM 50.0 °F 44.6 °F 82% 29.90 in 10.0 mi ESE 6.9 mph - N/A   Scattered Clouds
3:33 AM 50.0 °F 44.6 °F 82% 29.90 in 10.0 mi ESE 8.1 mph - N/A   Clear
3:54 AM 50.0 °F 44.6 °F 82% 29.90 in 10.0 mi ESE 6.9 mph - N/A   Clear
4:13 AM 50.0 °F 44.6 °F 82% 29.89 in 10.0 mi ESE 6.9 mph - N/A   Clear
4:34 AM 50.0 °F 44.6 °F 82% 29.89 in 10.0 mi ESE 9.2 mph - N/A   Clear
4:53 AM 50.0 °F 44.6 °F 82% 29.89 in 10.0 mi ESE 10.4 mph - N/A   Clear
5:13 AM 50.0 °F 44.6 °F 82% 29.89 in 10.0 mi ESE 11.5 mph - N/A   Clear
5:34 AM 51.8 °F 44.6 °F 76% 29.89 in 10.0 mi ESE 12.7 mph 17.3 mph N/A   Clear
5:53 AM 51.8 °F 44.6 °F 76% 29.88 in 10.0 mi ESE 13.8 mph 18.4 mph N/A   Clear
6:14 AM 51.8 °F 44.6 °F 76% 29.88 in 10.0 mi ESE 11.5 mph 20.7 mph N/A   Clear
6:33 AM 51.8 °F 44.6 °F 76% 29.87 in 10.0 mi ESE 13.8 mph 18.4 mph N/A   Clear
6:53 AM 51.8 °F 44.6 °F 76% 29.87 in 10.0 mi SE 13.8 mph 21.9 mph N/A   Clear
7:14 AM 53.6 °F 46.4 °F 77% 29.87 in 10.0 mi SE 17.3 mph 21.9 mph N/A   Clear
7:34 AM 51.8 °F 44.6 °F 76% 29.87 in 10.0 mi SE 12.7 mph 19.6 mph N/A   Clear
7:53 AM 51.8 °F 44.6 °F 76% 29.87 in 10.0 mi SE 12.7 mph - N/A   Clear
8:13 AM 51.8 °F 44.6 °F 76% 29.87 in 10.0 mi SE 15.0 mph 18.4 mph N/A   Clear
8:34 AM 53.6 °F 46.4 °F 77% 29.86 in 10.0 mi SE 13.8 mph 20.7 mph N/A   Clear
8:53 AM 53.6 °F 46.4 °F 77% 29.86 in 10.0 mi SE 11.5 mph 19.6 mph N/A   Clear
9:14 AM 57.2 °F 46.4 °F 67% 29.87 in 10.0 mi SE 15.0 mph 20.7 mph N/A   Clear
9:33 AM 57.2 °F 46.4 °F 67% 29.87 in 10.0 mi SE 13.8 mph 18.4 mph N/A   Clear
9:54 AM 59.0 °F 48.2 °F 67% 29.86 in 10.0 mi SE 12.7 mph 19.6 mph N/A   Clear
10:13 AM 62.6 °F 50.0 °F 63% 29.86 in 10.0 mi SE 17.3 mph 23.0 mph N/A   Clear
10:33 AM 62.6 °F 50.0 °F 63% 29.86 in 10.0 mi SSE 16.1 mph 20.7 mph N/A   Clear
10:54 AM 64.4 °F 50.0 °F 59% 29.86 in 10.0 mi SE 15.0 mph 21.9 mph N/A   Clear
11:13 AM 68.0 °F 51.8 °F 56% 29.85 in 10.0 mi SE 13.8 mph 19.6 mph N/A   Clear
11:34 AM 69.8 °F 51.8 °F 53% 29.84 in 10.0 mi SE 13.8 mph 23.0 mph N/A   Clear
11:54 AM 69.8 °F 51.8 °F 53% 29.84 in 10.0 mi SSE 15.0 mph 18.4 mph N/A   Clear
12:14 PM 71.6 °F 50.0 °F 46% 29.83 in 10.0 mi SSE 16.1 mph 23.0 mph N/A   Clear
12:33 PM 73.4 °F 51.8 °F 47% 29.83 in 10.0 mi SSE 16.1 mph 24.2 mph N/A   Clear
12:54 PM 73.4 °F 51.8 °F 47% 29.82 in 10.0 mi SSE 16.1 mph 23.0 mph N/A   Clear
1:13 PM 73.4 °F 51.8 °F 47% 29.82 in 10.0 mi SSE 16.1 mph 23.0 mph N/A   Clear
1:33 PM 75.2 °F 51.8 °F 44% 29.81 in 10.0 mi SE 17.3 mph 21.9 mph N/A   Clear
1:54 PM 77.0 °F 51.8 °F 41% 29.80 in 10.0 mi SE 15.0 mph 23.0 mph N/A   Clear
2:13 PM 77.0 °F 51.8 °F 41% 29.80 in 10.0 mi SSE 16.1 mph 23.0 mph N/A   Clear
2:34 PM 78.8 °F 51.8 °F 39% 29.79 in 10.0 mi SSE 18.4 mph 25.3 mph N/A   Clear
2:53 PM 78.8 °F 51.8 °F 39% 29.79 in 10.0 mi SSE 16.1 mph 24.2 mph N/A   Clear
3:13 PM 80.6 °F 50.0 °F 34% 29.78 in 10.0 mi SSE 18.4 mph 24.2 mph N/A   Clear
3:33 PM 80.6 °F 51.8 °F 37% 29.77 in 10.0 mi South 15.0 mph 24.2 mph N/A   Clear
3:54 PM 80.6 °F 51.8 °F 37% 29.77 in 10.0 mi South 15.0 mph 25.3 mph N/A   Clear
4:14 PM 80.6 °F 50.0 °F 34% 29.76 in 10.0 mi South 15.0 mph 23.0 mph N/A   Clear
4:33 PM 80.6 °F 50.0 °F 34% 29.76 in 10.0 mi SSE 13.8 mph - N/A   Clear
4:53 PM 80.6 °F 50.0 °F 34% 29.75 in 10.0 mi South 15.0 mph 21.9 mph N/A   Clear
5:14 PM 80.6 °F 50.0 °F 34% 29.76 in 10.0 mi SSE 19.6 mph 26.5 mph N/A   Clear
5:33 PM 80.6 °F 50.0 °F 34% 29.76 in 10.0 mi SSE 11.5 mph 23.0 mph N/A   Clear
5:54 PM 78.8 °F 50.0 °F 36% 29.76 in 10.0 mi SSE 13.8 mph 20.7 mph N/A   Clear
6:14 PM 78.8 °F 51.8 °F 39% 29.77 in 10.0 mi SSE 11.5 mph 17.3 mph N/A   Clear
6:33 PM 77.0 °F 51.8 °F 41% 29.77 in 10.0 mi SSE 10.4 mph - N/A   Clear
6:53 PM 75.2 °F 51.8 °F 44% 29.77 in 10.0 mi SSE 9.2 mph - N/A   Clear
7:14 PM 73.4 °F 53.6 °F 50% 29.77 in 10.0 mi SE 8.1 mph - N/A   Clear
7:33 PM 69.8 °F 53.6 °F 56% 29.78 in 10.0 mi SSE 8.1 mph - N/A   Clear
7:53 PM 69.8 °F 53.6 °F 56% 29.78 in 10.0 mi SE 9.2 mph - N/A   Clear
8:14 PM 68.0 °F 53.6 °F 60% 29.79 in 10.0 mi SE 8.1 mph - N/A   Clear
8:33 PM 68.0 °F 53.6 °F 60% 29.79 in 10.0 mi SE 5.8 mph - N/A   Clear
8:54 PM 64.4 °F 53.6 °F 68% 29.79 in 10.0 mi SE 5.8 mph - N/A   Clear
9:13 PM 64.4 °F 53.6 °F 68% 29.79 in 10.0 mi SE 8.1 mph - N/A   Clear
9:33 PM 64.4 °F 53.6 °F 68% 29.80 in 10.0 mi SE 11.5 mph - N/A   Clear
9:53 PM 62.6 °F 53.6 °F 72% 29.80 in 10.0 mi SE 11.5 mph - N/A   Clear
10:14 PM 62.6 °F 53.6 °F 72% 29.80 in 10.0 mi SE 11.5 mph - N/A   Clear
10:33 PM 62.6 °F 53.6 °F 72% 29.80 in 10.0 mi SE 10.4 mph - N/A   Clear
10:53 PM 62.6 °F 53.6 °F 72% 29.81 in 10.0 mi SE 11.5 mph - N/A   Clear
11:14 PM 62.6 °F 53.6 °F 72% 29.81 in 10.0 mi SSE 12.7 mph 18.4 mph N/A   Clear
11:33 PM 62.6 °F 53.6 °F 72% 29.81 in 10.0 mi SSE 12.7 mph 17.3 mph N/A   Clear
11:54 PM 62.6 °F 51.8 °F 68% 29.81 in 10.0 mi SSE 13.8 mph 19.6 mph N/A   Clear